Find Starlink 31474

NORAD ID: 59304 Int'l Des: 2024-056 Owner: SPXS Country: US Constellation: starlink operational
LEOCIRCULAR

Current View

Loading 3D Globe...

About Starlink 31474

Starlink 31474 (NORAD 59304) is a starlink constellation satellite (v2 mini) launched Mar 24, 2024 by SPXS of US. It operates in LEO, CIRCULAR orbit with a mass of 730.00 kg.

Upcoming Passes

Passes for default location (London). Set your location on the main map for personalized predictions.

Altitude History

Loading altitude history...

Two-Line Element Set

1 59304U 24056J 26264.13214756 -.00000232 00000-0 10779-5 0 9994
2 59304 43.0017 200.1227 0000672 259.0256 101.0520 15.27577430141125
Epoch: Sep 21, 2026 • Age: 12 hours

Current Status

Altitude 482.4 km
Apogee / Perigee N/A
Velocity 7.63 km/s
Sub-Earth Point 4.23°N, 148.64°E
Launch Date Mar 24, 2024
Age 2.4 years
Type internet

Technical Details

Classification Payload
Mass 730.00 kg
Dry Mass 700.00 kg
Length 0.30 m
Span 29.00 m
Shape ? Box + pan
Manufacturer SPXS
Bus Type Starlink V2M
Phase Status In Orbit
Owner/State SPXS/US

Most Searched